Lufkin, TX

2:05 PM CST on January 19, 2018 (GMT -0600)
Angelina County

Weather History for KLFK - November, 2013

Change the Weather History Date:

Tuesday, November 12, 2013

  Actual Average Record
Temperature  
Mean Temperature 53 °F 60 °F  
Max Temperature 65 °F 71 °F 87 °F (1945)
Min Temperature 40 °F 48 °F 22 °F (1950)
Degree Days  
Heating Degree Days 12 7  
Month to date heating degree days 81 68  
Since 1 July heating degree days 107 134  
Cooling Degree Days 0 1  
Month to date cooling degree days 5 22  
Year to date cooling degree days 2821 2566  
Growing Degree Days 3 (Base 50)    
Moisture  
Dew Point 45 °F    
Average Humidity 83    
Maximum Humidity 100    
Minimum Humidity 65    
Precipitation  
Precipitation T in 0.18 in 2.06 in (1998)
Month to date precipitation 0.01 2.07  
Year to date precipitation 36.53 41.57  
Snow  
Snow 0.00 in - - ()
Month to date snowfall 0.0  
Since 1 July snowfall 0.0  
Since 1 September snowfall 0.0  
Snow Depth 0.00 in    
Sea Level Pressure  
Sea Level Pressure 30.43 in    
Wind  
Wind Speed 7 mph (North)    
Max Wind Speed 21 mph    
Max Gust Speed 26 mph    
Visibility 9 miles    
Events Rain    
T = Trace of Precipitation, MM = Missing Value Source: NWS Daily Summary

Daily Weather History Graph

Daily Weather History Graph

Search for Another Location

Airport or City:

Trip Planner

Search our weather history database for the weather conditions in past years. The results will help you decide how hot, cold, wet, or windy it might be!

Date:

Astronomy

Nov. 12, 2013 Rise Set
Actual Time 6:43 AM CST 5:22 PM CST
Civil Twilight 6:18 AM CST 5:47 PM CST
Nautical Twilight 5:49 AM CST 6:16 PM CST
Astronomical Twilight 5:20 AM CST 6:45 PM CST
Moon 2:20 PM CST (11/12) 1:53 AM CST (11/12)
Length of Visible Light 11h 29m
Length of Day
10h 38m
Waxing Gibbous, 76% of the Moon is Illuminated
Nov 12
Waxing Gibbous
Nov 17
Full
Nov 25
Last Quarter
Dec 2
New
Dec 9
First Quarter

Hourly Weather History & Observations

Time (CST) Temp. Windchill Dew Point Humidity Pressure Visibility Wind Dir Wind Speed Gust Speed Precip Events Conditions
12:53 AM 51.1 °F - 48.9 °F 92% 30.25 in 9.0 mi North 3.5 mph - N/A   Clear
1:53 AM 48.9 °F - 46.9 °F 93% 30.25 in 5.0 mi Calm Calm - 0.01 in   Clear
2:53 AM 46.9 °F - 46.0 °F 97% 30.26 in 5.0 mi Calm Calm - N/A   Clear
3:53 AM 46.0 °F - 45.0 °F 96% 30.27 in 6.0 mi Calm Calm - N/A   Clear
4:53 AM 50.0 °F - 48.0 °F 93% 30.29 in 7.0 mi North 4.6 mph - N/A   Clear
5:53 AM 48.9 °F - 46.9 °F 93% 30.32 in 9.0 mi NNW 4.6 mph - N/A   Clear
6:53 AM 50.0 °F - 48.0 °F 93% 30.35 in 10.0 mi North 3.5 mph - N/A   Clear
7:53 AM 54.0 °F - 50.0 °F 86% 30.37 in 10.0 mi NNW 3.5 mph - N/A   Clear
8:53 AM 59.0 °F - 53.1 °F 81% 30.39 in 10.0 mi North 10.4 mph 18.4 mph N/A   Clear
9:53 AM 63.0 °F - 54.0 °F 72% 30.41 in 10.0 mi North 16.1 mph 25.3 mph N/A   Scattered Clouds
10:11 AM 64.4 °F - 53.6 °F 68% 30.42 in 10.0 mi NNE 15.0 mph 25.3 mph N/A   Mostly Cloudy
10:53 AM 63.0 °F - 53.1 °F 70% 30.43 in 10.0 mi North 13.8 mph 24.2 mph N/A   Overcast
11:53 AM 57.9 °F - 52.0 °F 81% 30.45 in 6.0 mi North 10.4 mph 23.0 mph N/A   Haze
12:53 PM 55.9 °F - 52.0 °F 87% 30.44 in 5.0 mi North 9.2 mph 19.6 mph 0.00 in Rain Light Rain
1:53 PM 55.0 °F - 50.0 °F 83% 30.44 in 10.0 mi NNE 15.0 mph 24.2 mph 0.00 in   Overcast
2:22 PM 57.2 °F - 48.2 °F 72% 30.45 in 10.0 mi North 11.5 mph 19.6 mph N/A   Overcast
2:53 PM 55.9 °F - 46.0 °F 69% 30.45 in 10.0 mi North 15.0 mph 23.0 mph N/A   Overcast
3:53 PM 55.0 °F - 44.1 °F 67% 30.48 in 10.0 mi NNE 9.2 mph - N/A   Overcast
4:48 PM 53.6 °F - 42.8 °F 67% 30.50 in 10.0 mi North 9.2 mph 18.4 mph N/A   Overcast
4:53 PM 54.0 °F - 43.0 °F 66% 30.50 in 10.0 mi North 8.1 mph - N/A   Overcast
5:53 PM 50.0 °F - 42.1 °F 74% 30.51 in 10.0 mi North 3.5 mph - N/A   Partly Cloudy
6:53 PM 46.9 °F - 42.1 °F 83% 30.53 in 10.0 mi North 4.6 mph - N/A   Clear
7:53 PM 46.9 °F - 39.0 °F 74% 30.56 in 10.0 mi NNE 8.1 mph - N/A   Clear
8:53 PM 46.0 °F 41.9 °F 36.0 °F 68% 30.58 in 10.0 mi NE 8.1 mph - N/A   Clear
9:53 PM 44.1 °F 39.5 °F 34.0 °F 68% 30.61 in 10.0 mi NE 8.1 mph - N/A   Clear
10:53 PM 42.1 °F 37.1 °F 32.0 °F 67% 30.61 in 10.0 mi NE 8.1 mph - N/A   Clear
11:53 PM 41.0 °F 36.4 °F 28.9 °F 62% 30.61 in 10.0 mi NE 6.9 mph - N/A   Clear